Regional Weather Roundup
Issued by NWS

Home | Current Version | Previous Version | Text Only | Print | Product List | Glossary On
Versions: 1 2 3 4 5 6 7 8 9 10 11 12 13 14 15 16 17 18 19 20 21 22 23 24 25 26 27 28 29 30 31 32 33 34 35 36 37 38 39 40 41 42 43 44 45 46 47 48 49 50
085
ASUS44 KFWD 240915
RWRTX
NORTH TEXAS HOURLY WEATHER ROUNDUP
NATIONAL WEATHER SERVICE FORT WORTH TX
400 AM CDT TUE APR 24 2018

NOTE: "FAIR" INDICATES FEW OR NO CLOUDS BELOW 12,000 FEET WITH NO
SIGNIFICANT WEATHER AND/OR OBSTRUCTIONS TO VISIBILITY.

TXZ118-119-241000-
DALLAS/FORT WORTH METROPLEX

CITY           SKY/WX    TMP DP  RH WIND       PRES   REMARKS
DFW AIRPORT    FAIR      59  52  77 N3        30.02R
DALLAS LOVE    FAIR      59  53  80 CALM      30.03R
FTW MEACHAM    FAIR      57  54  89 W3        30.03R
DAL-EXECUTIVE  FAIR      57  52  83 CALM      30.02S
FTW-ALLIANCE   FAIR      50  49  96 SW3       30.03R
FTW-NAS-JRB    FAIR      57  49  74 CALM      30.04R
FTW-SPINKS     FAIR      50  48  92 CALM      30.06R
ARLINGTON      FAIR      51  51 100 CALM      30.03S
GRAND PRAIRIE  FAIR      57  51  79 CALM      30.05R
ADDISON        FAIR      57  52  82 CALM      30.05S
MESQUITE       FAIR      53  51  94 CALM      30.03S
LANCASTER      FAIR      53  51  92 CALM      30.04S
$$

TXZ091>094-102>105-117-120-121-131>134-241000-
NORTH CENTRAL TEXAS

CITY           SKY/WX    TMP DP  RH WIND       PRES   REMARKS
SHRMAN/DENISON FAIR      50  48  91 CALM      30.04S
GAINESVILLE    FAIR      50  47  92 CALM      30.06R
BOWIE          FAIR      50  48  92 CALM      30.04S
BRIDGEPORT     FAIR      51  51 100 SW5       30.06R
DECATUR        FAIR      57  49  72 CALM      30.04R
DENTON         FAIR      51  50  96 CALM      30.03S
MCKINNEY       FAIR      51  51 100 CALM      30.03S
BONHAM         FAIR      52  50  92 W3        30.03S
GREENVILLE     FAIR      54  54 100 CALM      30.04R
ROCKWALL       FAIR      56  54  94 MISG      30.03S
TERRELL        FAIR      52  48  86 NE3       30.03S
WAXAHACHIE     FAIR      54  54  99 CALM      30.04S
GRANBURY       FAIR      52  49  89 CALM      30.07R
$$

TXZ083>090-098>101-113>116-127>130-139>142-154-155-241000-
WESTERN NORTH TEXAS

CITY           SKY/WX    TMP DP  RH WIND       PRES   REMARKS
WICHITA FALLS  FAIR      53  47  79 CALM      30.03S
WF-KICKAPOO    FAIR      56  49  78 SE3       30.06S
VERNON         FAIR      53  46  76 CALM      30.05S
ABILENE        FAIR      58  47  66 SE13      30.04F
ABILENE-DYESS  FAIR      60  43  54 SE9       30.04F
GRAHAM           N/A     49  32  51 CALM      30.04S
BRECKENRIDGE   FAIR      57  46  68 SE3       30.05S
CISCO          FAIR      54  46  76 S12       30.07S
EASTLAND       FAIR      47  44  90 CALM      30.07R
RANGER         FAIR      56  48  72 S5        30.07S
MINERAL WELLS  FAIR      52  49  89 CALM      30.04R
STEPHENVILLE   FAIR      52  47  83 CALM      30.09S
COMANCHE       FAIR      56  49  75 S6        30.07S
BROWNWOOD      FAIR      55  46  71 N3        30.06S
COLEMAN        FAIR      56  44  63 N5        30.06S
BRADY          FAIR      59  43  55 E9        30.05R
$$

TXZ143>147-156>162-174-175-241000-
CENTRAL TEXAS

CITY           SKY/WX    TMP DP  RH WIND       PRES   REMARKS
WACO           FAIR      56  53  90 SW9       30.05F
WACO-MCGREGOR  FAIR      56  52  86 SW3       30.06F
HILLSBORO      FAIR      54  54  99 CALM      30.05R
CORSICANA      FAIR      53  51  93 SW6       30.05R
MEXIA          FAIR      55  52  89 SW6       30.04S
HEARNE         FAIR      54  54 100 CALM      30.06F
CAMERON        FAIR      57  53  86 CALM      30.05F
TEMPLE         FAIR      54  51  90 N3        30.06F
KILLEEN        NOT AVBL
KILLEEN-SKYLRK FAIR      55  51  86 CALM      30.06S
FORT HOOD      FAIR      60  51  71 CALM      30.02S
GATESVILLE     FAIR      54  48  82 CALM      30.07F
HAMILTON       FAIR      56  49  77 S5        30.07F
LAMPASAS       FAIR      58  49  70 CALM      30.05S
$$

TXZ095>097-106>112-122>126-135>138-148>153-164>167-241000-
EAST TEXAS

CITY           SKY/WX    TMP DP  RH WIND       PRES   REMARKS
PARIS          FAIR      52  49  89 W3        30.03R
SULPHUR SPRNGS FAIR      55  54  96 SW5       30.05S
MOUNT PLEASANT FAIR      54  52  95 CALM      30.03S
GILMER         FAIR      54  52  92 W5        30.02R
MINEOLA        FAIR      50  50 100 CALM      30.03R
TYLER          FAIR      53  51  93 CALM      30.02S
LONGVIEW       FAIR      54  53  97 CALM      30.00S
MARSHALL       FAIR      50  48  93 CALM      30.02S
ATHENS         FAIR      50  50 100 CALM      30.02R
PALESTINE      FAIR      52  51  99 CALM      30.03S
JACKSONVILLE   FAIR      58  53  81 CALM      30.03F
HENDERSON      FAIR      49  49  99 CALM      30.03S
CENTER         FAIR      50  49  95 CALM      30.02S
NACOGDOCHES      N/A     48  47  96 CALM      30.02F
LUFKIN         FAIR      52  51  97 CALM      30.01F
$$

SUPPLEMENTAL OBSERVATIONS (NWS FORT WORTH AREA)

CITY           SKY/WX    TMP DP  RH WIND       PRES   REMARKS
DENISON DAM      N/A     57  54  88 CALM        N/A
CADDO GRASSLND   N/A     52  50  93 CALM        N/A
LBJ GRASSLAND    N/A     57  48  72 E3          N/A
POSSUM KINGDOM   N/A     57  48  72 S6          N/A
GRANBURY         N/A     52  48  87 N1          N/A
COMANCHE         N/A     57  48  72 S5          N/A
MCGREGOR         N/A     52  46  82 SW1         N/A
TEMPLE           N/A     59  52  77 E1          N/A
LAKE LIMESTONE   N/A     55  52  88 CALM        N/A
ATHENS           N/A     52  50  93 CALM        N/A
PALESTINE        N/A     50  48  93 CALM        N/A
$$

SUPPLEMENTAL OBSERVATIONS (NWS NORMAN AREA)

CITY           SKY/WX    TMP DP  RH WIND       PRES   REMARKS
GOODLETT         N/A     53  43  67 SE3       30.06R
ODELL            N/A     55  48  78 E9        30.06S
CROWELL          N/A     53  44  72 E2        30.07R
KNOX CITY        N/A     57  44  63 SE8       30.06R
SEYMOUR          N/A     53  46  78 SE6       30.06R
MILLERS CREEK    N/A     57  46  67 SE6         N/A
$$

SUPPLEMENTAL OBSERVATIONS (NWS SAN ANGELO AREA)

CITY           SKY/WX    TMP DP  RH WIND       PRES   REMARKS
WEINERT          N/A     58  45  62 SE7       30.06S
HASKELL          N/A     58  45  63 SE6       30.05S
THROCKMORTON     N/A     55  48  75 S6        30.07S
STAMFORD         N/A     56  45  65 SE7       30.06R
CLYDE            N/A     57  46  68 SE9       30.07S
HAMBY            N/A     57  45  62 SE6         N/A
IVIE RESERVOIR   N/A     61  43  51 E10         N/A
COLORADO BEND    N/A     61  48  63 E3          N/A
$$

SUPPLEMENTAL OBSERVATIONS (NWS SHREVEPORT AREA)

CITY           SKY/WX    TMP DP  RH WIND       PRES   REMARKS
TEXARKANA        N/A     52  50  93 CALM        N/A
LINDEN           N/A     55  50  82 W2          N/A
CADDO LAKE       N/A     52  50  93 CALM        N/A
LUFKIN           N/A     52  50  93 MISG        N/A
$$

SUPPLEMENTAL OBSERVATIONS ARE A COLLECTION OF AUTOMATED INSTRUMENTS
THAT ARE MAINTAINED BY A VARIETY OF FEDERAL AND STATE AGENCIES.
CERTAIN ELEMENTS...SUCH AS HUMIDITY VALUES AND SUSTAINED WIND
SPEEDS...MAY BE APPROXIMATED.





USA.gov is the U.S. government's official web portal to all federal, state and local government web resources and services.